Tracking 29799 objects as of 11-Oct-2024
HD Live streaming from Space Station
objects crossing your sky now

COSMOS 839 DEB

Track COSMOS 839 DEB now!
10-day predictions


NORAD ID: 10439
Int'l Code: 1976-067Q
Perigee: 1,056.9 km
Apogee: 2,100.1 km
Inclination: 65.8 °
Period: 117.6 minutes
Semi major axis: 7949 km
RCS: 0.145 m2 (medium)
Launch date: July 8, 1976
Source: Commonwealth of Independent States (former USSR) (CIS)
Launch site: PLESETSK MISSILE AND SPACE COMPLEX (PKMTR)

Note: This is SATELLITE DEBRIS
Your satellite tracking list
Your tracking list is empty




NASA's NSSDC Master Catalog

Two Line Element Set (TLE):
1 10439U 76067Q   24284.87664917  .00000133  00000-0  83857-3 0  9992
2 10439  65.7866 127.2814 0656169  90.8017 289.7071 12.24879107157716
Source of the keplerian elements: AFSPC